Overview Statistics Trail Chart Weather Telemetry Raw packets
 

This is the latest recevied weather packets stored in our database for station/object 4S6DRJ-13. If no packets are shown the sender has not sent any weather packets the latest 10 day(s).

<< 255 256 257 258 259 260 261 >>
Time Temp. Humidity Pressure Rain* Wind** Luminosity Snow
1788092468 28.89° C 78% 1008.7 hPa 0 mm 2.24 m/s, 165° 14 W/m² -
1788092407 28.89° C 78% 1008.6 hPa 0 mm 0.89 m/s, 241° 15 W/m² -
1788092346 28.89° C 78% 1008.5 hPa 0 mm 2.24 m/s, 282° 15 W/m² -
1788092285 28.89° C 78% 1008.4 hPa 0 mm 1.34 m/s, 277° 16 W/m² -
1788092225 28.89° C 77% 1008.2 hPa 0 mm 2.24 m/s, 245° 16 W/m² -
1788092163 28.89° C 78% 1008.3 hPa 0 mm 1.79 m/s, 184° 16 W/m² -
1788092102 28.89° C 77% 1008.2 hPa 0 mm 2.24 m/s, 257° 16 W/m² -
1788092041 28.89° C 78% 1008.4 hPa 0 mm 1.34 m/s, 237° 17 W/m² -
1788091980 28.89° C 78% 1008.3 hPa 0 mm 0.89 m/s, 269° 18 W/m² -
1788091920 28.89° C 78% 1008.3 hPa 0 mm 0.45 m/s, 197° 18 W/m² -
1788091858 28.89° C 78% 1008.4 hPa 0 mm 0 m/s 19 W/m² -
1788091797 28.89° C 78% 1008.3 hPa 0 mm 0.89 m/s, 345° 20 W/m² -
1788091736 28.89° C 77% 1008.3 hPa 0 mm 1.79 m/s, 126° 21 W/m² -
1788091676 28.89° C 77% 1008.5 hPa 0 mm 0.45 m/s, 233° 23 W/m² -
1788091615 28.89° C 77% 1008.4 hPa 0 mm 0.89 m/s, 241° 25 W/m² -
1788091553 28.89° C 77% 1008.3 hPa 0 mm 1.79 m/s, 287° 29 W/m² -
1788091492 28.89° C 77% 1008.4 hPa 0 mm 2.24 m/s, 238° 30 W/m² -
1788091431 28.89° C 77% 1008.4 hPa 0 mm 1.34 m/s, 223° 28 W/m² -
1788091370 28.89° C 76% 1008.3 hPa 0 mm 0.89 m/s, 346° 25 W/m² -
1788091312 28.89° C 76% 1008.3 hPa 0 mm 1.34 m/s, 253° 25 W/m² -
1788091248 28.89° C 76% 1008.2 hPa 0 mm 1.79 m/s, 218° 26 W/m² -
1788091187 28.89° C 76% 1008.2 hPa 0 mm 2.24 m/s, 18° 25 W/m² -
1788091127 28.89° C 77% 1008.3 hPa 0 mm 0.45 m/s, 202° 26 W/m² -
1788091066 29.44° C 76% 1008.3 hPa 0 mm 1.34 m/s, 299° 28 W/m² -
1788091004 29.44° C 76% 1008.2 hPa 0 mm 0.45 m/s, 208° 30 W/m² -

* Rain latest hour (hover to see other rain measurements)
** Current wind speed in m/s (hover to see current wind gust speed)